PBD6906 URMO-UUEE

Flight info

Callsign PBD6906
Flight time 2h 15m
Altitude 38000
Route TAFIK5C TAFIK N82 RINGU N50 OLOPI OLOPI3E
Aircraft B738/M-SDE2E3FGHIRWXY/LB1

Departure

Time 2026-05-08 09:34
Airport Vladikavkaz Beslan International Airport (URMO)

Arrival

Time 2026-05-08 11:49
Airport Sheremetyevo International Airport (UUEE)
Time Latitude Longitude Altitude Speed Heading
2026-05-08 09:04 43.20250 44.60546 1681 ft 0 kts 102°
2026-05-08 09:27 43.20249 44.60553 1681 ft 0 kts 102°
2026-05-08 09:28 43.20246 44.60570 1681 ft 3 kts 98°
2026-05-08 09:28 43.20262 44.60600 1681 ft 5 kts 30°
2026-05-08 09:28 43.20303 44.60601 1688 ft 7 kts 339°
2026-05-08 09:28 43.20322 44.60542 1681 ft 7 kts 281°
2026-05-08 09:29 43.20354 44.60504 1681 ft 7 kts 10°
2026-05-08 09:29 43.20408 44.60521 1686 ft 9 kts 12°
2026-05-08 09:29 43.20480 44.60542 1676 ft 10 kts 11°
2026-05-08 09:29 43.20539 44.60512 1674 ft 10 kts 298°
2026-05-08 09:30 43.20556 44.60425 1678 ft 10 kts 281°
2026-05-08 09:30 43.20571 44.60320 1682 ft 13 kts 282°
2026-05-08 09:30 43.20593 44.60178 1678 ft 17 kts 282°
2026-05-08 09:30 43.20620 44.60001 1680 ft 20 kts 281°
2026-05-08 09:31 43.20650 44.59803 1679 ft 22 kts 282°
2026-05-08 09:31 43.20681 44.59585 1676 ft 23 kts 281°
2026-05-08 09:31 43.20713 44.59372 1681 ft 23 kts 282°
2026-05-08 09:31 43.20745 44.59165 1671 ft 22 kts 281°
2026-05-08 09:32 43.20769 44.59000 1670 ft 13 kts 279°
2026-05-08 09:32 43.20748 44.58913 1665 ft 8 kts 256°
2026-05-08 09:32 43.20778 44.58908 1675 ft 7 kts 72°
2026-05-08 09:32 43.20773 44.58964 1666 ft 4 kts 100°
2026-05-08 09:33 43.20766 44.59014 1676 ft 10 kts 101°
2026-05-08 09:33 43.20707 44.59418 1681 ft 78 kts 101°
2026-05-08 09:33 43.20553 44.60450 1676 ft 141 kts 101°
2026-05-08 09:33 43.20328 44.61981 1845 ft 176 kts 101°
2026-05-08 09:34 43.20082 44.63627 2604 ft 179 kts 101°
2026-05-08 09:34 43.19824 44.65310 3391 ft 181 kts 101°
2026-05-08 09:34 43.19555 44.67077 3800 ft 206 kts 99°
2026-05-08 09:34 43.19264 44.69125 4063 ft 230 kts 100°
2026-05-08 09:35 43.18948 44.71339 4347 ft 250 kts 101°
2026-05-08 09:35 43.18591 44.73759 4781 ft 270 kts 101°
2026-05-08 09:35 43.17912 44.76219 5359 ft 281 kts 128°
2026-05-08 09:35 43.16396 44.77834 6093 ft 278 kts 163°
2026-05-08 09:36 43.14499 44.78095 6831 ft 274 kts 192°
2026-05-08 09:36 43.12732 44.77195 7566 ft 273 kts 217°
2026-05-08 09:36 43.11441 44.75350 8313 ft 269 kts 242°
2026-05-08 09:36 43.10879 44.72921 8965 ft 270 kts 268°
2026-05-08 09:37 43.10882 44.70375 9786 ft 268 kts 272°
2026-05-08 09:37 43.10931 44.67771 10392 ft 276 kts 272°
2026-05-08 09:37 43.10962 44.65112 10990 ft 283 kts 271°
2026-05-08 09:37 43.10983 44.62395 11667 ft 287 kts 271°
2026-05-08 09:38 43.11061 44.59654 12366 ft 290 kts 278°
2026-05-08 09:38 43.11452 44.56915 13015 ft 295 kts 283°
2026-05-08 09:38 43.11905 44.54202 13691 ft 298 kts 283°
2026-05-08 09:38 43.12354 44.51417 14390 ft 301 kts 283°
2026-05-08 09:39 43.12879 44.48634 15020 ft 305 kts 295°
2026-05-08 09:39 43.14023 44.46182 15662 ft 307 kts 307°
2026-05-08 09:39 43.15308 44.43831 16376 ft 310 kts 308°
2026-05-08 09:39 43.16613 44.41460 17045 ft 312 kts 308°
2026-05-08 09:40 43.17927 44.39067 17679 ft 317 kts 308°
2026-05-08 09:40 43.19260 44.36624 18289 ft 321 kts 308°
2026-05-08 09:40 43.20598 44.34159 18935 ft 324 kts 308°
2026-05-08 09:40 43.21944 44.31670 19566 ft 327 kts 308°
2026-05-08 09:41 43.23302 44.29150 20159 ft 330 kts 308°
2026-05-08 09:41 43.24670 44.26606 20742 ft 333 kts 308°
2026-05-08 09:41 43.26053 44.24032 21313 ft 336 kts 308°
2026-05-08 09:41 43.27446 44.21433 21882 ft 340 kts 308°
2026-05-08 09:42 43.28852 44.18808 22435 ft 343 kts 308°
2026-05-08 09:42 43.30269 44.16159 22970 ft 346 kts 308°
2026-05-08 09:42 43.31699 44.13484 23483 ft 349 kts 308°
2026-05-08 09:42 43.33142 44.10782 23993 ft 352 kts 308°
2026-05-08 09:43 43.34593 44.08059 24509 ft 355 kts 309°
2026-05-08 09:43 43.36058 44.05311 24975 ft 358 kts 309°
2026-05-08 09:43 43.37535 44.02541 25443 ft 361 kts 309°
2026-05-08 09:43 43.39024 43.99743 25892 ft 364 kts 309°
2026-05-08 09:44 43.40538 43.96941 26348 ft 365 kts 314°
2026-05-08 09:44 43.42472 43.94746 26709 ft 361 kts 335°
2026-05-08 09:44 43.44851 43.93577 26775 ft 368 kts 349°
2026-05-08 09:44 43.47360 43.92796 26869 ft 380 kts 350°
2026-05-08 09:45 43.49987 43.92020 26949 ft 392 kts 351°
2026-05-08 09:45 43.52701 43.91216 27035 ft 404 kts 350°
2026-05-08 09:45 43.55483 43.90378 27104 ft 415 kts 350°
2026-05-08 09:45 43.58337 43.89503 27172 ft 425 kts 350°
2026-05-08 09:46 43.61252 43.88597 27234 ft 435 kts 349°
2026-05-08 09:46 43.63220 43.87980 27307 ft 440 kts 349°
2026-05-08 09:46 43.66221 43.87035 27562 ft 443 kts 349°
2026-05-08 09:46 43.69229 43.86085 27939 ft 444 kts 349°
2026-05-08 09:47 43.72245 43.85132 28278 ft 445 kts 349°
2026-05-08 09:47 43.75270 43.84178 28577 ft 447 kts 349°
2026-05-08 09:47 43.78311 43.83219 28859 ft 449 kts 349°
2026-05-08 09:47 43.81365 43.82256 29133 ft 451 kts 349°
2026-05-08 09:48 43.84434 43.81286 29401 ft 453 kts 349°
2026-05-08 09:48 43.87475 43.80325 29679 ft 454 kts 349°
2026-05-08 09:48 43.90557 43.79350 30040 ft 453 kts 349°
2026-05-08 09:48 43.93623 43.78378 30434 ft 451 kts 350°
2026-05-08 09:49 43.96679 43.77408 30765 ft 451 kts 349°
2026-05-08 09:49 43.99749 43.76433 31033 ft 452 kts 349°
2026-05-08 09:49 44.02815 43.75459 31333 ft 452 kts 349°
2026-05-08 09:49 44.05882 43.74483 31660 ft 451 kts 349°
2026-05-08 09:50 44.08945 43.73506 31972 ft 451 kts 349°
2026-05-08 09:50 44.12004 43.72531 32228 ft 452 kts 349°
2026-05-08 09:50 44.15071 43.71554 32508 ft 452 kts 349°
2026-05-08 09:50 44.18133 43.70577 32818 ft 451 kts 349°
2026-05-08 09:51 44.21188 43.69603 33095 ft 450 kts 349°
2026-05-08 09:51 44.24241 43.68629 33349 ft 451 kts 349°
2026-05-08 09:51 44.27298 43.67653 33622 ft 450 kts 349°
2026-05-08 09:51 44.30350 43.66678 33895 ft 450 kts 349°
2026-05-08 09:52 44.33409 43.65699 34150 ft 450 kts 349°
2026-05-08 09:52 44.36461 43.64721 34406 ft 450 kts 349°
2026-05-08 09:52 44.39478 43.63754 34621 ft 450 kts 349°
2026-05-08 09:52 44.42534 43.62773 34814 ft 451 kts 349°
2026-05-08 09:53 44.45593 43.61790 35060 ft 451 kts 348°
2026-05-08 09:53 44.48648 43.60807 35301 ft 451 kts 348°
2026-05-08 09:53 44.51709 43.59826 35519 ft 451 kts 348°
2026-05-08 09:53 44.54770 43.58846 35722 ft 451 kts 348°
2026-05-08 09:54 44.57828 43.57866 35925 ft 451 kts 348°
2026-05-08 09:54 44.60899 43.56879 36112 ft 452 kts 348°
2026-05-08 09:54 44.63961 43.55895 36309 ft 452 kts 348°
2026-05-08 09:54 44.67027 43.54907 36471 ft 453 kts 348°
2026-05-08 09:55 44.70100 43.53917 36626 ft 453 kts 348°
2026-05-08 09:55 44.73134 43.52937 36871 ft 452 kts 347°
2026-05-08 09:55 44.76178 43.51953 37231 ft 447 kts 347°
2026-05-08 09:55 44.79202 43.50979 37531 ft 444 kts 347°
2026-05-08 09:56 44.82214 43.50010 37683 ft 445 kts 347°
2026-05-08 09:56 44.88284 43.48054 37907 ft 448 kts 347°
2026-05-08 09:56 44.91321 43.47073 38066 ft 448 kts 347°
2026-05-08 09:57 44.97420 43.45099 38142 ft 451 kts 347°
2026-05-08 09:57 45.03529 43.43116 38137 ft 449 kts 347°
2026-05-08 09:58 45.09603 43.41148 38139 ft 446 kts 347°
2026-05-08 09:58 45.15656 43.39303 38130 ft 444 kts 348°
2026-05-08 09:59 45.21649 43.37499 38126 ft 442 kts 348°
2026-05-08 09:59 45.27650 43.35673 38126 ft 441 kts 348°
2026-05-08 10:00 45.33647 43.33826 38125 ft 441 kts 347°
2026-05-08 10:00 45.39653 43.31938 38123 ft 442 kts 347°
2026-05-08 10:01 45.45673 43.30043 38122 ft 443 kts 347°
2026-05-08 10:01 45.51711 43.28159 38132 ft 445 kts 348°
2026-05-08 10:02 45.57769 43.26285 38123 ft 446 kts 348°
2026-05-08 10:02 45.63843 43.24400 38121 ft 447 kts 348°
2026-05-08 10:03 45.69933 43.22502 38120 ft 448 kts 347°
2026-05-08 10:03 45.76036 43.20612 38121 ft 449 kts 348°
2026-05-08 10:04 45.82164 43.18849 38117 ft 449 kts 349°
2026-05-08 10:04 45.88294 43.17109 38108 ft 449 kts 349°
2026-05-08 10:05 45.94376 43.15364 38109 ft 448 kts 348°
2026-05-08 10:05 46.00481 43.13597 38111 ft 447 kts 348°
2026-05-08 10:06 46.06580 43.11832 38108 ft 446 kts 348°
2026-05-08 10:06 46.12660 43.10067 38101 ft 445 kts 348°
2026-05-08 10:07 46.18723 43.08298 38107 ft 443 kts 348°
2026-05-08 10:07 46.24766 43.06534 38113 ft 442 kts 348°
2026-05-08 10:08 46.30752 43.04790 38105 ft 442 kts 348°
2026-05-08 10:08 46.36777 43.03030 38096 ft 441 kts 348°
2026-05-08 10:09 46.42787 43.01268 38097 ft 441 kts 348°
2026-05-08 10:09 46.48802 42.99501 38096 ft 441 kts 348°
2026-05-08 10:10 46.54807 42.97731 38094 ft 440 kts 348°
2026-05-08 10:10 46.60820 42.95957 38093 ft 441 kts 348°
2026-05-08 10:11 46.66832 42.94179 38095 ft 441 kts 348°
2026-05-08 10:11 46.72864 42.92392 38089 ft 442 kts 348°
2026-05-08 10:12 46.78896 42.90599 38079 ft 443 kts 348°
2026-05-08 10:12 46.84941 42.88800 38071 ft 443 kts 348°
2026-05-08 10:13 46.90987 42.86995 38075 ft 443 kts 348°
2026-05-08 10:13 46.96993 42.85197 38072 ft 443 kts 348°
2026-05-08 10:14 47.03030 42.83386 38066 ft 443 kts 348°
2026-05-08 10:14 47.09062 42.81574 38067 ft 442 kts 348°
2026-05-08 10:15 47.15098 42.79754 38063 ft 442 kts 348°
2026-05-08 10:15 47.21128 42.77935 38066 ft 442 kts 348°
2026-05-08 10:16 47.27162 42.76112 38065 ft 442 kts 348°
2026-05-08 10:16 47.33185 42.74289 38063 ft 441 kts 348°
2026-05-08 10:17 47.39199 42.72462 38066 ft 441 kts 348°
2026-05-08 10:17 47.45170 42.70652 38065 ft 441 kts 349°
2026-05-08 10:18 47.51186 42.68838 38062 ft 441 kts 349°
2026-05-08 10:18 47.57204 42.67021 38065 ft 441 kts 348°
2026-05-08 10:19 47.63216 42.65202 38053 ft 441 kts 348°
2026-05-08 10:20 47.72227 42.62462 38055 ft 440 kts 348°
2026-05-08 10:20 47.78226 42.60629 38056 ft 440 kts 348°
2026-05-08 10:21 47.84234 42.58790 38050 ft 441 kts 348°
2026-05-08 10:21 47.90245 42.56948 38046 ft 441 kts 348°
2026-05-08 10:22 47.96257 42.55099 38048 ft 441 kts 348°
2026-05-08 10:22 48.02229 42.53262 38046 ft 441 kts 348°
2026-05-08 10:23 48.08238 42.51408 38046 ft 441 kts 348°
2026-05-08 10:23 48.14206 42.49561 38045 ft 441 kts 348°
2026-05-08 10:24 48.20223 42.47695 38047 ft 441 kts 348°
2026-05-08 10:24 48.26185 42.45556 38049 ft 440 kts 344°
2026-05-08 10:25 48.32005 42.42861 38048 ft 440 kts 343°
2026-05-08 10:25 48.37857 42.40120 38048 ft 440 kts 343°
2026-05-08 10:26 48.43716 42.37424 38045 ft 440 kts 343°
2026-05-08 10:26 48.49581 42.34742 38047 ft 440 kts 343°
2026-05-08 10:27 48.55449 42.32055 38048 ft 440 kts 343°
2026-05-08 10:27 48.61305 42.29367 38043 ft 440 kts 343°
2026-05-08 10:28 48.67171 42.26681 38039 ft 440 kts 343°
2026-05-08 10:28 48.72989 42.24012 38036 ft 440 kts 343°
2026-05-08 10:29 48.78861 42.21312 38038 ft 440 kts 343°
2026-05-08 10:29 48.84725 42.18606 38035 ft 440 kts 343°
2026-05-08 10:30 48.90583 42.15897 38039 ft 440 kts 343°
2026-05-08 10:30 48.96435 42.13184 38037 ft 439 kts 343°
2026-05-08 10:31 49.02245 42.10483 38034 ft 438 kts 343°
2026-05-08 10:31 49.08167 42.08301 38036 ft 437 kts 351°
2026-05-08 10:32 49.14194 42.07074 38027 ft 437 kts 353°
2026-05-08 10:32 49.20218 42.05898 38029 ft 436 kts 352°
2026-05-08 10:33 49.26236 42.04655 38031 ft 436 kts 352°
2026-05-08 10:33 49.32245 42.03372 38027 ft 436 kts 352°
2026-05-08 10:34 49.38251 42.02073 38032 ft 436 kts 352°
2026-05-08 10:34 49.43244 42.00994 38025 ft 436 kts 352°
2026-05-08 10:35 49.49255 41.99691 38026 ft 436 kts 352°
2026-05-08 10:35 49.56238 41.98176 38029 ft 436 kts 352°
2026-05-08 10:36 49.61275 41.97077 38029 ft 437 kts 351°
2026-05-08 10:36 49.67292 41.95765 38026 ft 437 kts 351°
2026-05-08 10:37 49.73306 41.94450 38027 ft 436 kts 351°
2026-05-08 10:37 49.79292 41.93141 38028 ft 437 kts 351°
2026-05-08 10:38 49.85313 41.91817 38028 ft 437 kts 351°
2026-05-08 10:38 49.91328 41.90490 38026 ft 437 kts 351°
2026-05-08 10:39 49.97348 41.89159 38030 ft 437 kts 351°
2026-05-08 10:39 50.03371 41.87824 38021 ft 437 kts 351°
2026-05-08 10:40 50.09387 41.86487 38031 ft 436 kts 351°
2026-05-08 10:40 50.15394 41.85149 38025 ft 435 kts 351°
2026-05-08 10:41 50.21372 41.83705 38028 ft 435 kts 348°
2026-05-08 10:41 50.27276 41.81682 38025 ft 434 kts 346°
2026-05-08 10:42 50.33166 41.79564 38030 ft 434 kts 347°
2026-05-08 10:42 50.39031 41.77509 38031 ft 435 kts 347°
2026-05-08 10:43 50.44941 41.75471 38025 ft 434 kts 347°
2026-05-08 10:43 50.50844 41.73438 38025 ft 435 kts 347°
2026-05-08 10:44 50.56759 41.71393 38031 ft 435 kts 347°
2026-05-08 10:44 50.62665 41.69342 38030 ft 435 kts 347°
2026-05-08 10:45 50.68585 41.67284 38028 ft 436 kts 347°
2026-05-08 10:45 50.74516 41.65220 38027 ft 436 kts 347°
2026-05-08 10:46 50.80433 41.63153 38029 ft 436 kts 347°
2026-05-08 10:46 50.86312 41.61093 38027 ft 436 kts 347°
2026-05-08 10:47 50.92232 41.59015 38031 ft 436 kts 347°
2026-05-08 10:47 50.98150 41.56932 38027 ft 436 kts 347°
2026-05-08 10:48 51.04082 41.54837 38025 ft 436 kts 347°
2026-05-08 10:48 51.10010 41.52738 38030 ft 436 kts 347°
2026-05-08 10:49 51.15938 41.50633 38028 ft 437 kts 347°
2026-05-08 10:49 51.21877 41.48523 38025 ft 437 kts 347°
2026-05-08 10:50 51.27816 41.46405 38029 ft 437 kts 347°
2026-05-08 10:50 51.33752 41.44279 38038 ft 437 kts 347°
2026-05-08 10:51 51.39689 41.42150 38033 ft 437 kts 347°
2026-05-08 10:51 51.45621 41.40018 38037 ft 437 kts 347°
2026-05-08 10:52 51.51509 41.37894 38038 ft 436 kts 347°
2026-05-08 10:52 51.57438 41.35752 38035 ft 437 kts 347°
2026-05-08 10:53 51.63370 41.33602 38027 ft 437 kts 347°
2026-05-08 10:53 51.69079 41.30314 38016 ft 437 kts 331°
2026-05-08 10:54 51.74106 41.24816 38011 ft 437 kts 324°
2026-05-08 10:54 51.79035 41.19067 38005 ft 437 kts 324°
2026-05-08 10:55 51.83990 41.13355 38011 ft 437 kts 325°
2026-05-08 10:55 51.88925 41.07703 38019 ft 437 kts 325°
2026-05-08 10:56 51.93884 41.02017 38023 ft 437 kts 325°
2026-05-08 10:56 51.98842 40.96315 38032 ft 437 kts 325°
2026-05-08 10:57 52.03801 40.90600 38022 ft 437 kts 325°
2026-05-08 10:57 52.11642 40.83075 38025 ft 437 kts 331°
2026-05-08 10:58 52.16964 40.78325 38027 ft 436 kts 331°
2026-05-08 10:58 52.22261 40.73480 38031 ft 436 kts 330°
2026-05-08 10:59 52.27540 40.68589 38031 ft 436 kts 330°
2026-05-08 10:59 52.32822 40.63684 38028 ft 437 kts 330°
2026-05-08 11:00 52.38105 40.58776 38026 ft 437 kts 330°
2026-05-08 11:00 52.43391 40.53868 38028 ft 437 kts 330°
2026-05-08 11:01 52.48675 40.48948 38028 ft 437 kts 330°
2026-05-08 11:01 52.53953 40.44024 38026 ft 436 kts 330°
2026-05-08 11:02 52.61831 40.36658 38028 ft 436 kts 330°
2026-05-08 11:03 52.67099 40.31716 38027 ft 435 kts 330°
2026-05-08 11:03 52.72357 40.26766 38028 ft 435 kts 330°
2026-05-08 11:04 52.77619 40.21799 38016 ft 435 kts 330°
2026-05-08 11:04 52.82873 40.16829 38016 ft 435 kts 329°
2026-05-08 11:05 52.88120 40.11852 38018 ft 435 kts 329°
2026-05-08 11:05 52.93360 40.06867 38027 ft 434 kts 329°
2026-05-08 11:06 52.98595 40.01874 38026 ft 434 kts 329°
2026-05-08 11:06 53.03826 39.96871 38033 ft 434 kts 329°
2026-05-08 11:07 53.09061 39.91848 38025 ft 434 kts 329°
2026-05-08 11:07 53.14289 39.86819 38027 ft 434 kts 329°
2026-05-08 11:08 53.19512 39.81783 38027 ft 434 kts 329°
2026-05-08 11:08 53.24735 39.76728 38026 ft 433 kts 329°
2026-05-08 11:09 53.29948 39.71668 38028 ft 433 kts 328°
2026-05-08 11:09 53.35153 39.66603 38030 ft 433 kts 328°
2026-05-08 11:10 53.40360 39.61523 38026 ft 433 kts 328°
2026-05-08 11:10 53.45631 39.56771 38028 ft 433 kts 332°
2026-05-08 11:11 53.51038 39.52279 38029 ft 433 kts 332°
2026-05-08 11:11 53.56439 39.47763 38036 ft 433 kts 332°
2026-05-08 11:12 53.61822 39.43195 38039 ft 433 kts 332°
2026-05-08 11:12 53.67215 39.38585 37744 ft 437 kts 332°
2026-05-08 11:12 53.69920 39.36268 37503 ft 436 kts 332°
2026-05-08 11:13 53.72610 39.33961 37246 ft 431 kts 332°
2026-05-08 11:13 53.75276 39.31671 36999 ft 429 kts 332°
2026-05-08 11:13 53.77929 39.29388 36643 ft 427 kts 332°
2026-05-08 11:13 53.80582 39.27103 36096 ft 426 kts 332°
2026-05-08 11:14 53.83224 39.24825 35469 ft 427 kts 332°
2026-05-08 11:14 53.85875 39.22535 34813 ft 428 kts 332°
2026-05-08 11:14 53.88496 39.20268 34188 ft 429 kts 332°
2026-05-08 11:14 53.91157 39.17961 33563 ft 429 kts 332°
2026-05-08 11:15 53.93804 39.15661 33109 ft 425 kts 332°
2026-05-08 11:15 53.96428 39.13378 32619 ft 422 kts 332°
2026-05-08 11:15 53.99030 39.11109 32157 ft 419 kts 332°
2026-05-08 11:15 54.01613 39.08855 31687 ft 415 kts 332°
2026-05-08 11:16 54.04172 39.06620 31225 ft 413 kts 330°
2026-05-08 11:16 54.06722 39.04389 30761 ft 410 kts 330°
2026-05-08 11:16 54.09246 39.02177 30302 ft 407 kts 330°
2026-05-08 11:16 54.11760 38.99970 29846 ft 405 kts 330°
2026-05-08 11:17 54.14256 38.97776 29382 ft 402 kts 330°
2026-05-08 11:17 54.16737 38.95592 28909 ft 399 kts 330°
2026-05-08 11:17 54.19198 38.93425 28446 ft 397 kts 330°
2026-05-08 11:17 54.21634 38.91276 28173 ft 389 kts 330°
2026-05-08 11:18 54.24008 38.89188 27994 ft 380 kts 330°
2026-05-08 11:18 54.26347 38.87182 27810 ft 372 kts 331°
2026-05-08 11:18 54.28691 38.85198 27662 ft 383 kts 331°
2026-05-08 11:18 54.31119 38.83140 27483 ft 395 kts 331°
2026-05-08 11:19 54.33605 38.81030 27283 ft 400 kts 331°
2026-05-08 11:19 54.36066 38.78939 27077 ft 398 kts 331°
2026-05-08 11:19 54.38538 38.76833 26882 ft 395 kts 331°
2026-05-08 11:19 54.40996 38.74734 26682 ft 393 kts 330°
2026-05-08 11:20 54.43435 38.72647 26502 ft 391 kts 330°
2026-05-08 11:20 54.45868 38.70561 26319 ft 389 kts 330°
2026-05-08 11:20 54.48292 38.68480 26161 ft 390 kts 330°
2026-05-08 11:20 54.50718 38.66391 26104 ft 390 kts 330°
2026-05-08 11:21 54.53140 38.64303 26086 ft 388 kts 330°
2026-05-08 11:21 54.55558 38.62214 26086 ft 389 kts 330°
2026-05-08 11:21 54.57159 38.60829 26082 ft 389 kts 330°
2026-05-08 11:21 54.60390 38.58028 26080 ft 389 kts 330°
2026-05-08 11:22 54.61991 38.56637 26076 ft 389 kts 330°
2026-05-08 11:22 54.64405 38.54536 26074 ft 388 kts 330°
2026-05-08 11:22 54.67603 38.51756 26074 ft 388 kts 330°
2026-05-08 11:22 54.70015 38.49657 26079 ft 388 kts 330°
2026-05-08 11:23 54.71643 38.48237 26079 ft 388 kts 330°
2026-05-08 11:23 54.74053 38.46136 26037 ft 389 kts 330°
2026-05-08 11:23 54.76450 38.44057 25833 ft 389 kts 330°
2026-05-08 11:23 54.78865 38.41967 25647 ft 386 kts 330°
2026-05-08 11:24 54.81265 38.39885 25462 ft 385 kts 330°
2026-05-08 11:24 54.83657 38.37807 25287 ft 384 kts 330°
2026-05-08 11:24 54.85894 38.35364 25073 ft 377 kts 314°
2026-05-08 11:24 54.87708 38.32113 24945 ft 373 kts 310°
2026-05-08 11:25 54.89576 38.28981 24484 ft 375 kts 315°
2026-05-08 11:25 54.91541 38.26026 24158 ft 372 kts 316°
2026-05-08 11:25 54.93518 38.23149 23879 ft 369 kts 317°
2026-05-08 11:25 54.95489 38.20286 23650 ft 369 kts 316°
2026-05-08 11:26 54.97455 38.17404 23414 ft 369 kts 316°
2026-05-08 11:26 54.99411 38.14514 23185 ft 368 kts 316°
2026-05-08 11:26 55.01331 38.11652 22958 ft 368 kts 316°
2026-05-08 11:26 55.03268 38.08752 22731 ft 366 kts 316°
2026-05-08 11:27 55.05221 38.05817 22502 ft 365 kts 315°
2026-05-08 11:27 55.07112 38.02969 22279 ft 364 kts 315°
2026-05-08 11:27 55.09020 38.00091 22053 ft 361 kts 315°
2026-05-08 11:27 55.10917 37.97222 21824 ft 359 kts 315°
2026-05-08 11:28 55.12796 37.94375 21614 ft 357 kts 315°
2026-05-08 11:28 55.14671 37.91532 21385 ft 355 kts 315°
2026-05-08 11:28 55.16532 37.88706 21159 ft 353 kts 315°
2026-05-08 11:28 55.18381 37.85895 20949 ft 351 kts 315°
2026-05-08 11:29 55.20219 37.83098 20731 ft 350 kts 315°
2026-05-08 11:29 55.22052 37.80305 20514 ft 348 kts 315°
2026-05-08 11:29 55.23873 37.77527 20303 ft 346 kts 315°
2026-05-08 11:29 55.25686 37.74757 20085 ft 345 kts 314°
2026-05-08 11:30 55.27489 37.71998 19868 ft 343 kts 314°
2026-05-08 11:30 55.29287 37.69244 19653 ft 342 kts 314°
2026-05-08 11:30 55.31077 37.66497 19451 ft 341 kts 314°
2026-05-08 11:30 55.32835 37.63797 19235 ft 340 kts 314°
2026-05-08 11:31 55.34614 37.61062 19026 ft 339 kts 314°
2026-05-08 11:31 55.36388 37.58331 18808 ft 338 kts 314°
2026-05-08 11:31 55.38153 37.55611 18599 ft 337 kts 314°
2026-05-08 11:31 55.39912 37.52896 18398 ft 336 kts 314°
2026-05-08 11:32 55.41665 37.50187 18185 ft 335 kts 314°
2026-05-08 11:32 55.43412 37.47484 17976 ft 334 kts 314°
2026-05-08 11:32 55.45153 37.44789 17773 ft 333 kts 314°
2026-05-08 11:32 55.46882 37.42110 17561 ft 329 kts 314°
2026-05-08 11:33 55.48583 37.39473 17353 ft 322 kts 314°
2026-05-08 11:33 55.50336 37.37069 17129 ft 320 kts 327°
2026-05-08 11:33 55.52448 37.35777 16822 ft 327 kts 346°
2026-05-08 11:33 55.54713 37.35576 16480 ft 323 kts 354°
2026-05-08 11:34 55.56946 37.35588 16116 ft 318 kts 354°
2026-05-08 11:34 55.59146 37.35614 15612 ft 316 kts 354°
2026-05-08 11:34 55.61345 37.35626 15087 ft 315 kts 354°
2026-05-08 11:34 55.63535 37.35625 14601 ft 313 kts 354°
2026-05-08 11:35 55.65709 37.35611 14121 ft 312 kts 354°
2026-05-08 11:35 55.67867 37.35593 13656 ft 309 kts 354°
2026-05-08 11:35 55.70014 37.35572 13194 ft 307 kts 354°
2026-05-08 11:35 55.72118 37.35551 12728 ft 305 kts 354°
2026-05-08 11:36 55.74251 37.35448 12266 ft 301 kts 351°
2026-05-08 11:36 55.76310 37.35213 11803 ft 299 kts 350°
2026-05-08 11:36 55.78388 37.34963 11400 ft 299 kts 351°
2026-05-08 11:36 55.80443 37.34732 11022 ft 294 kts 351°
2026-05-08 11:37 55.82477 37.34508 10541 ft 292 kts 352°
2026-05-08 11:37 55.84500 37.34282 10091 ft 290 kts 352°
2026-05-08 11:37 55.86514 37.34059 9634 ft 288 kts 352°
2026-05-08 11:37 55.88505 37.33840 9186 ft 286 kts 353°
2026-05-08 11:38 55.90487 37.33620 8750 ft 284 kts 353°
2026-05-08 11:38 55.92451 37.33401 8316 ft 282 kts 353°
2026-05-08 11:38 55.94383 37.33189 8157 ft 270 kts 353°
2026-05-08 11:38 55.96267 37.32983 8219 ft 271 kts 353°
2026-05-08 11:39 55.98148 37.33276 7969 ft 278 kts 18°
2026-05-08 11:39 55.99842 37.34963 7752 ft 279 kts 30°
2026-05-08 11:39 56.01452 37.36876 7496 ft 278 kts 31°
2026-05-08 11:39 56.03051 37.38797 7252 ft 276 kts 31°
2026-05-08 11:40 56.04643 37.40710 7010 ft 276 kts 31°
2026-05-08 11:40 56.06215 37.42593 6760 ft 273 kts 31°
2026-05-08 11:40 56.07785 37.44466 6508 ft 270 kts 31°
2026-05-08 11:40 56.09341 37.46322 6256 ft 267 kts 31°
2026-05-08 11:41 56.10881 37.48156 5999 ft 264 kts 31°
2026-05-08 11:41 56.12402 37.49963 5755 ft 261 kts 31°
2026-05-08 11:41 56.13911 37.51763 5501 ft 260 kts 31°
2026-05-08 11:41 56.15410 37.53548 5256 ft 258 kts 31°
2026-05-08 11:42 56.16847 37.55372 5217 ft 249 kts 41°
2026-05-08 11:42 56.17728 37.57965 5125 ft 246 kts 73°
2026-05-08 11:42 56.17740 37.61005 4945 ft 244 kts 104°
2026-05-08 11:42 56.17016 37.63742 4813 ft 244 kts 128°
2026-05-08 11:43 56.15874 37.65993 4688 ft 244 kts 135°
2026-05-08 11:43 56.14668 37.68147 4553 ft 245 kts 135°
2026-05-08 11:43 56.13477 37.70284 4423 ft 245 kts 135°
2026-05-08 11:43 56.12288 37.72436 4281 ft 240 kts 135°
2026-05-08 11:44 56.11135 37.74529 4172 ft 231 kts 134°
2026-05-08 11:44 56.09995 37.76453 4043 ft 220 kts 147°
2026-05-08 11:44 56.08583 37.77238 3679 ft 216 kts 186°
2026-05-08 11:44 56.07214 37.76449 3450 ft 203 kts 217°
2026-05-08 11:45 56.06206 37.74808 3283 ft 191 kts 231°
2026-05-08 11:45 56.05276 37.73083 3152 ft 194 kts 230°
2026-05-08 11:45 56.04331 37.71331 3024 ft 197 kts 230°
2026-05-08 11:45 56.03388 37.69585 2897 ft 193 kts 230°
2026-05-08 11:46 56.02469 37.67883 2780 ft 189 kts 230°
2026-05-08 11:46 56.01553 37.66190 2645 ft 190 kts 230°
2026-05-08 11:46 56.00647 37.64450 2532 ft 189 kts 238°
2026-05-08 11:46 56.00250 37.62341 2521 ft 173 kts 266°
2026-05-08 11:47 55.99986 37.60258 2404 ft 171 kts 258°
2026-05-08 11:47 55.99662 37.58281 2210 ft 161 kts 259°
2026-05-08 11:47 55.99374 37.56422 2031 ft 153 kts 259°
2026-05-08 11:47 55.99102 37.54605 1811 ft 151 kts 259°
2026-05-08 11:48 55.98831 37.52805 1621 ft 149 kts 259°
2026-05-08 11:48 55.98565 37.51039 1421 ft 144 kts 258°
2026-05-08 11:48 55.98296 37.49300 1219 ft 147 kts 259°
2026-05-08 11:48 55.98035 37.47515 1023 ft 150 kts 259°
2026-05-08 11:49 55.97768 37.45694 836 ft 151 kts 258°
2026-05-08 11:49 55.97502 37.43913 644 ft 144 kts 257°
2026-05-08 11:49 55.97277 37.42392 638 ft 100 kts 254°
2026-05-08 11:49 55.97151 37.41562 638 ft 35 kts 253°
2026-05-08 11:50 55.97084 37.41209 639 ft 28 kts 240°
2026-05-08 11:50 55.96982 37.40974 637 ft 23 kts 227°
2026-05-08 11:50 55.96905 37.40833 638 ft 14 kts 224°
2026-05-08 11:50 55.96838 37.40712 638 ft 14 kts 225°
2026-05-08 11:51 55.96795 37.40592 638 ft 11 kts 253°
2026-05-08 11:51 55.96774 37.40458 639 ft 11 kts 255°
2026-05-08 11:51 55.96756 37.40328 641 ft 11 kts 256°
2026-05-08 11:51 55.96737 37.40201 638 ft 10 kts 255°
2026-05-08 11:52 55.96688 37.40126 641 ft 10 kts 175°
2026-05-08 11:52 55.96621 37.40160 640 ft 10 kts 165°
2026-05-08 11:52 55.96556 37.40191 639 ft 10 kts 165°
2026-05-08 11:52 55.96510 37.40157 638 ft 6 kts 252°
2026-05-08 11:53 55.96499 37.40085 638 ft 6 kts 255°
2026-05-08 11:53 55.96496 37.40064 638 ft 0 kts 255°